STARLINK-37017, 68108

Orbit data source: Space-Track

STARLINK-37017, 68108 is a payload satellite owned by SpaceX/Seattle (US) in SSO that was launched on Sun, 08 Mar 2026 UTC via an FALCON 9 launch vehicle from the Air Force Western Test Range (AFWTR). Payload-class satellites include a variety of spacecraft equipped with specific instruments for various scientific and technological missions. These include communications satellites like Starlink; space stations such as the ISS; scientific satellites like the Hubble; Earth observation satellites from companies like Planet Labs, Umbra, and HawkEye 360; GPS; miniature CubeSats for education and research; and military/defense satellites.

Loading next visibility...
Identifier
68108, 2026-044H
Orbit
SSO
Country
Flag of USUS
Related business
Manufacturer
SpaceX/Seattle
Mission
Operational Commercial Communications
Bus & Motor
STARLINK V2MO, Unknown motor
Mass
575 kg wet, ~530 kg dry
Launch date (UTC)
2026-03-08 (6 months ago)
Launch vehicle
FALCON 9
Launch site
Air Force Western Test Range (AFWTR)
Object type
Payload
Rocket body
Debris
Shape & HBR
Box + 1 Pan, 17.7 m
Radar Cross Section
41.120 m², Large (>1 m²)

Expand to show TLE details & history
Last TLE update: 13 hours ago

TLE from 13 hours ago
0 STARLINK-37017
1 68108U 26044H   26246.84807760  .00014951  00000-0  46473-3 0  9996
2 68108  97.2852 205.9989 0001176  89.7779 270.3598 15.33430439 28887
Epoch: 2026-09-03T20:21Z
TLE epoch observation values (Epoch: 2026-09-03T20:21:13.904Z)
Latitude
-0.00008°
Longitude
-82.28939°
Altitude
468.694 km
Speed
7.632 km/s
True Right ascension
13h 43m 59s
True Declination
0° 00' 00"
Sunlit
Object was in daylight at epoch
Visualization orbit readout
Latitude
Unknown
Longitude
Unknown
Altitude
Unknown
Speed
Unknown
Apparent Right ascension
Unknown
Apparent Declination
Unknown
Sunlit
N/A
Visualization observer readout
Local Sidereal Time
01:43:44
Azimuth
Unknown
Elevation
Unknown
Doppler factor
Unknown
Orbital elements
Apogee altitude
463.334 km
Perigee altitude
461.725 km
Semi-major axis
6,840.666 km
Eccentricity
0.00012
Inclination
97.2852°
RAAN
205.9989°
Arg. of periapsis
89.7779°
True anomaly
270.34632°
Mean anomaly
270.3598°
Eccentric anomaly
270.35306°
Mean motion
3.83615 °/min
Orbital period
93.84 mins
BSTAR
0.00046473
Loading maneuver chart data...
Computing Atmospheric mass density...
Loading historical data...
Loading historical data...
Loading historical data...
Loading historical data...
Loading historical data...
Loading historical data...
Loading historical data...

Documentation

Showing up to 5 results
|